Location: LDNL
(36.4545°S, 141.6685°E)
Time: 20:04:36
(UTC+10:00)

A-11 Canister half - Pass Details

Date: 31 January 2022
Orbit: 1527 x 1682 km, 47.3° (Epoch: 20 May)

Event Time Altitude Azimuth Distance (km) Brightness Sun altitude
Rises 02:23:33 0° 256° (WSW) 4,939 11.7 -35.3°
Reaches altitude 10° 02:27:00 10° 249° (WSW) 3,942 11.2 -35.2°
Maximum altitude 02:36:34 45° 178° (S) 2,143 10.0 -34.7°
Drops below altitude 10° 02:45:53 10° 107° (ESE) 3,836 11.4 -34.2°
Sets 02:49:12 0° 100° (E) 4,797 11.9 -34.0°
